Fort Patrick Henry Observed Data For Previous 48 Hours

Caption
Day and Hour Reservoir Elevation (behind dam)* Tailwater Elevation (below dam)* Average Hourly Discharge*
1/17/2018 2 AM EST 1,258.78 1,192.34 3,170
1/17/2018 3 AM EST 1,258.80 1,192.30 3,176
1/17/2018 4 AM EST 1,258.80 1,192.30 3,171
1/17/2018 5 AM EST 1,258.84 1,192.31 3,188
1/17/2018 6 AM EST 1,259.16 1,186.74 75
1/17/2018 7 AM EST 1,259.41 1,191.20 278
1/17/2018 8 AM EST 1,259.64 1,187.95 2,545
1/17/2018 9 AM EST 1,259.90 1,186.62 0
1/17/2018 10 AM EST 1,260.16 1,191.27 289
1/17/2018 11 AM EST 1,260.30 1,188.02 2,573
1/17/2018 12 PM EST 1,260.59 1,186.63 0
1/17/2018 1 PM EST 1,260.41 1,191.17 261
1/17/2018 2 PM EST 1,260.29 1,187.94 2,534
1/17/2018 3 PM EST 1,260.33 1,186.61 0
1/17/2018 4 PM EST 1,260.53 1,191.20 271
1/17/2018 5 PM EST 1,260.54 1,193.15 3,435
1/17/2018 6 PM EST 1,260.27 1,195.67 6,648
1/17/2018 7 PM EST 1,259.95 1,195.61 6,597
1/17/2018 8 PM EST 1,259.59 1,195.61 6,557
1/17/2018 9 PM EST 1,259.26 1,195.61 6,571
1/17/2018 10 PM EST 1,259.25 1,192.32 3,287
1/17/2018 11 PM EST 1,259.30 1,192.36 3,164
1/18/2018 12 AM EST 1,259.24 1,186.74 74
1/18/2018 1 AM EST 1,259.14 1,191.13 253
1/18/2018 2 AM EST 1,259.13 1,187.97 2,589
1/18/2018 3 AM EST 1,259.10 1,186.63 0
1/18/2018 4 AM EST 1,258.97 1,191.21 261
1/18/2018 5 AM EST 1,259.03 1,192.64 3,445
1/18/2018 6 AM EST 1,259.29 1,192.68 3,435
1/18/2018 7 AM EST 1,259.37 1,195.60 5,578
1/18/2018 8 AM EST 1,259.27 1,196.93 8,373
1/18/2018 9 AM EST 1,259.25 1,195.74 7,070
1/18/2018 10 AM EST 1,259.52 1,192.33 3,327
1/18/2018 11 AM EST 1,259.75 1,186.77 86
1/18/2018 12 PM EST 1,259.57 1,191.12 247
1/18/2018 1 PM EST 1,259.50 1,188.04 2,580
1/18/2018 2 PM EST 1,259.39 1,186.63 0
1/18/2018 3 PM EST 1,259.23 1,191.31 293
1/18/2018 4 PM EST 1,259.15 1,187.95 2,550
1/18/2018 5 PM EST 1,259.09 1,186.62 0
1/18/2018 6 PM EST 1,259.34 1,191.04 241
1/18/2018 7 PM EST 1,259.45 1,192.66 3,416
1/18/2018 8 PM EST 1,259.39 1,192.69 3,504
1/18/2018 9 PM EST 1,259.69 1,186.76 121
1/18/2018 10 PM EST 1,259.56 1,191.20 275
1/18/2018 11 PM EST 1,259.47 1,187.98 2,578
1/19/2018 12 AM EST 1,259.49 1,186.63 0

Elevations are in feet above sea level. Discharges are in cubic feet per second and are reported at the end of the hour.